| time (UTC) | temp C | wind direction | speed KPH | gust KPH | rain 1hr cm | rain 24hr cm | rain mn cm | humidity % | barometer mb |
| 20260505211519 | 32 | 258 | 0.0 | 8.0 | 0.00 | 0.00 | 0.00 | 53 | 1002.3 |
| 20260505210017 | 31 | 138 | 3.2 | 11.3 | 0.00 | 0.00 | 0.00 | 54 | 1002.4 |
| 20260505204515 | 32 | 186 | 1.6 | 6.4 | 0.00 | 0.00 | 0.00 | 54 | 1002.6 |
| 20260505203020 | 31 | 221 | 1.6 | 9.7 | 0.00 | 0.00 | 0.00 | 56 | 1002.7 |
| 20260505201527 | 31 | 277 | 1.6 | 11.3 | 0.00 | 0.00 | 0.00 | 56 | 1002.9 |
| 20260505200013 | 31 | 267 | 1.6 | 6.4 | 0.00 | 0.00 | 0.00 | 60 | 1003.1 |
| 20260505194509 | 31 | 329 | 3.2 | 11.3 | 0.00 | 0.00 | 0.00 | 61 | 1003.1 |
| 20260505193008 | 30 | 262 | 3.2 | 14.5 | 0.00 | 0.00 | 0.00 | 62 | 1003.3 |
| 20260505191510 | 30 | 140 | 3.2 | 17.7 | 0.00 | 0.00 | 0.00 | 63 | 1003.2 |
| 20260505190010 | 30 | 329 | 1.6 | 17.7 | 0.00 | 0.00 | 0.00 | 63 | 1003.2 |
| 20260505184507 | 30 | 157 | 4.8 | 14.5 | 0.00 | 0.00 | 0.00 | 62 | 1003.4 |
| 20260505183102 | 29 | 67 | 4.8 | 16.1 | 0.00 | 0.00 | 0.00 | 63 | 1003.5 |
| 20260505181558 | 28 | 109 | 1.6 | 11.3 | 0.00 | 0.00 | 0.00 | 66 | 1003.6 |
| 20260505180002 | 28 | 283 | 3.2 | 16.1 | 0.00 | 0.00 | 0.00 | 67 | 1003.7 |
| 20260505174604 | 28 | 55 | 1.6 | 11.3 | 0.00 | 0.00 | 0.00 | 67 | 1003.7 |
| 20260505173057 | 27 | 248 | 1.6 | 16.1 | 0.00 | 0.00 | 0.00 | 69 | 1003.8 |
| 20260505171553 | 27 | 254 | 3.2 | 16.1 | 0.00 | 0.00 | 0.00 | 71 | 1003.7 |
| 20260505170107 | 27 | 134 | 1.6 | 12.9 | 0.00 | 0.00 | 0.00 | 70 | 1003.8 |
| 20260505164550 | 27 | 106 | 4.8 | 11.3 | 0.00 | 0.00 | 0.00 | 71 | 1003.9 |
| 20260505163047 | 27 | 227 | 1.6 | 14.5 | 0.00 | 0.00 | 0.00 | 72 | 1003.7 |
| 20260505161546 | 26 | 205 | 3.2 | 16.1 | 0.00 | 0.00 | 0.00 | 74 | 1003.5 |
| 20260505153040 | 25 | 175 | 6.4 | 12.9 | 0.00 | 0.00 | 0.00 | 77 | 1003.6 |
| 20260505151553 | 25 | 316 | 1.6 | 17.7 | 0.00 | 0.00 | 0.00 | 77 | 1003.8 |
| 20260505124512 | 21 | 136 | 3.2 | 17.7 | 0.00 | 0.00 | 0.00 | 86 | 1003.2 |
| 20260505123008 | 21 | 237 | 3.2 | 12.9 | 0.00 | 0.00 | 0.00 | 86 | 1002.9 |
| 20260505121512 | 21 | 215 | 1.6 | 17.7 | 0.00 | 0.00 | 0.00 | 86 | 1002.7 |
| 20260505120002 | 21 | 181 | 6.4 | 20.9 | 0.00 | 0.00 | 0.00 | 86 | 1002.6 |
| 20260505114600 | 21 | 96 | 3.2 | 16.1 | 0.00 | 0.00 | 0.00 | 86 | 1002.8 |
| 20260505113101 | 21 | 184 | 3.2 | 16.1 | 0.00 | 0.00 | 0.00 | 86 | 1002.6 |
| 20260505111559 | 21 | 230 | 3.2 | 14.5 | 0.00 | 0.00 | 0.00 | 86 | 1002.7 |
| 20260505101556 | 21 | 181 | 8.0 | 20.9 | 0.00 | 0.00 | 0.00 | 85 | 1002.4 |
| 20260505100055 | 21 | 107 | 3.2 | 17.7 | 0.00 | 0.00 | 0.00 | 85 | 1002.6 |
| 20260505094549 | 21 | 175 | 3.2 | 17.7 | 0.00 | 0.00 | 0.00 | 84 | 1002.7 |
| 20260505093048 | 21 | 123 | 3.2 | 19.3 | 0.00 | 0.00 | 0.00 | 84 | 1002.7 |
| 20260505091545 | 21 | 200 | 1.6 | 12.9 | 0.00 | 0.00 | 0.00 | 84 | 1003.1 |
| 20260505090056 | 21 | 177 | 6.4 | 19.3 | 0.00 | 0.00 | 0.00 | 84 | 1003.2 |
| 20260505084549 | 21 | 147 | 1.6 | 16.1 | 0.00 | 0.00 | 0.00 | 84 | 1003.1 |
| 20260505083045 | 21 | 150 | 6.4 | 24.1 | 0.00 | 0.00 | 0.00 | 84 | 1003.2 |
| 20260505081544 | 21 | 215 | 3.2 | 22.5 | 0.00 | 0.00 | 0.00 | 83 | 1003.2 |
| 20260505080038 | 21 | 107 | 3.2 | 17.7 | 0.00 | 0.00 | 0.00 | 83 | 1003.3 |
| 20260505074536 | 21 | 173 | 3.2 | 16.1 | 0.00 | 0.00 | 0.00 | 82 | 1003.5 |
| 20260505073038 | 22 | 202 | 4.8 | 19.3 | 0.00 | 0.00 | 0.00 | 82 | 1003.7 |
| 20260505071530 | 22 | 150 | 1.6 | 17.7 | 0.00 | 0.00 | 0.00 | 81 | 1004.0 |
| 20260505070028 | 22 | 229 | 3.2 | 16.1 | 0.00 | 0.00 | 0.00 | 81 | 1004.2 |
| 20260505064527 | 22 | 183 | 3.2 | 12.9 | 0.00 | 0.00 | 0.00 | 80 | 1004.3 |
| 20260505063026 | 22 | 136 | 6.4 | 17.7 | 0.00 | 0.00 | 0.00 | 79 | 1004.4 |
| 20260505061524 | 22 | 237 | 3.2 | 22.5 | 0.00 | 0.00 | 0.00 | 77 | 1004.4 |
| 20260505060030 | 22 | 188 | 8.0 | 22.5 | 0.00 | 0.00 | 0.00 | 76 | 1004.5 |
| 20260505054532 | 23 | 134 | 6.4 | 22.5 | 0.00 | 0.00 | 0.00 | 75 | 1004.3 |
| 20260505053016 | 23 | 213 | 4.8 | 25.7 | 0.00 | 0.00 | 0.00 | 74 | 1004.3 |
| 20260505051511 | 23 | 150 | 6.4 | 20.9 | 0.00 | 0.00 | 0.00 | 73 | 1004.6 |
| 20260505041505 | 23 | 237 | 3.2 | 17.7 | 0.00 | 0.00 | 0.00 | 73 | 1004.8 |
| 20260505040004 | 23 | 218 | 6.4 | 19.3 | 0.00 | 0.00 | 0.00 | 72 | 1004.7 |
| 20260505034504 | 23 | 232 | 6.4 | 19.3 | 0.00 | 0.00 | 0.00 | 72 | 1004.9 |
| 20260505033010 | 23 | 198 | 6.4 | 17.7 | 0.00 | 0.00 | 0.00 | 72 | 1004.7 |
| 20260505031502 | 23 | 159 | 4.8 | 17.7 | 0.00 | 0.00 | 0.00 | 72 | 1004.6 |
| 20260505030001 | 23 | 44 | 4.8 | 16.1 | 0.00 | 0.00 | 0.00 | 72 | 1005.0 |
| 20260505024503 | 23 | 161 | 4.8 | 14.5 | 0.00 | 0.00 | 0.00 | 72 | 1004.9 |
| 20260505023001 | 23 | 132 | 6.4 | 20.9 | 0.00 | 0.00 | 0.00 | 71 | 1004.8 |
| 20260505021501 | 23 | 166 | 4.8 | 19.3 | 0.00 | 0.00 | 0.00 | 70 | 1004.6 |
| 20260505020100 | 24 | 82 | 4.8 | 19.3 | 0.00 | 0.00 | 0.00 | 69 | 1004.6 |
| 20260505014600 | 24 | 172 | 4.8 | 19.3 | 0.00 | 0.00 | 0.00 | 69 | 1004.5 |
| 20260505013059 | 24 | 121 | 8.0 | 17.7 | 0.00 | 0.00 | 0.00 | 68 | 1004.6 |
| 20260505011602 | 25 | 128 | 6.4 | 19.3 | 0.00 | 0.00 | 0.00 | 67 | 1004.7 |
| 20260505004600 | 25 | 190 | 4.8 | 24.1 | 0.00 | 0.00 | 0.00 | 66 | 1004.7 |
| 20260505003059 | 25 | 201 | 6.4 | 24.1 | 0.00 | 0.00 | 0.00 | 66 | 1004.8 |
| 20260505001554 | 25 | 141 | 8.0 | 19.3 | 0.00 | 0.00 | 0.00 | 65 | 1004.9 |
| 20260505000058 | 25 | 111 | 9.7 | 20.9 | 0.00 | 0.00 | 0.00 | 64 | 1005.0 |
| 20260504234615 | 25 | 142 | 6.4 | 24.1 | 0.00 | 0.00 | 0.00 | 64 | 1005.0 |
| 20260504233052 | 25 | 151 | 9.7 | 32.2 | 0.00 | 0.00 | 0.00 | 63 | 1005.1 |
| 20260504231555 | 25 | 131 | 8.0 | 25.7 | 0.00 | 0.00 | 0.00 | 63 | 1005.2 |
| 20260504230054 | 26 | 262 | 6.4 | 29.0 | 0.00 | 0.00 | 0.00 | 63 | 1005.3 |
| 20260504224553 | 26 | 281 | 6.4 | 17.7 | 0.00 | 0.00 | 0.00 | 62 | 1005.8 |
| 20260504223047 | 26 | 123 | 8.0 | 22.5 | 0.00 | 0.00 | 0.00 | 62 | 1005.6 |
| 20260504221557 | 26 | 206 | 8.0 | 24.1 | 0.00 | 0.00 | 0.00 | 61 | 1005.8 |
| 20260504220045 | 26 | 128 | 6.4 | 22.5 | 0.00 | 0.00 | 0.00 | 60 | 1005.8 |
| 20260504214549 | 27 | 90 | 6.4 | 19.3 | 0.00 | 0.00 | 0.00 | 60 | 1006.0 |
| 20260504213048 | 26 | 108 | 9.7 | 29.0 | 0.00 | 0.00 | 0.00 | 60 | 1006.2 |